Location: Feigenhofen
(48.4939°N, 10.7793°E)
Time: 15:08:19
(UTC+00:00)

Cosmos 2058 Rocket - Pass Details

Date: 26 May 2022
Orbit: 609 x 640 km, 82.5° (Epoch: 28 June)

Event Time Altitude Azimuth Distance (km) Brightness Sun altitude
Rises 02:03:36 0° 356° (N) 2,908 7.3 -10.8°
Reaches altitude 10° 02:05:58 10° 4° (N) 1,992 6.5 -10.5°
Maximum altitude 02:10:07 40° 74° (ENE) 918 4.5 -10.1°
Drops below altitude 10° 02:14:13 10° 144° (SE) 1,964 5.5 -9.6°
Sets 02:16:31 0° 152° (SSE) 2,861 6.3 -9.4°
